OMA907 OOMS-OMDB

Flight info

Callsign OMA907
Flight time 0h 46m
Altitude 30000
Route MURMA DCT DAPOK/N0362F200 T508 SOLUD P574 IMPED
Aircraft B789/H-SDE1E2E3FGHIJ2J3J4J5M1RWXY/LB1D1

Departure

Time 2026-04-25 07:42
Airport Muscat International Airport (OOMS)

Arrival

Time 2026-04-25 08:28
Airport Dubai International Airport (OMDB)
Time Latitude Longitude Altitude Speed Heading
2026-04-25 07:21 23.60462 58.28733 39 ft 0 kts 265°
2026-04-25 07:33 23.60463 58.28742 40 ft 2 kts 264°
2026-04-25 07:33 23.60465 58.28760 40 ft 2 kts 265°
2026-04-25 07:34 23.60466 58.28778 40 ft 2 kts 264°
2026-04-25 07:34 23.60468 58.28796 40 ft 2 kts 264°
2026-04-25 07:34 23.60469 58.28814 40 ft 2 kts 264°
2026-04-25 07:34 23.60470 58.28832 40 ft 2 kts 289°
2026-04-25 07:35 23.60459 58.28844 36 ft 2 kts 337°
2026-04-25 07:35 23.60443 58.28850 36 ft 2 kts 348°
2026-04-25 07:35 23.60431 58.28852 37 ft 1 kts 353°
2026-04-25 07:35 23.60430 58.28852 37 ft 0 kts 353°
2026-04-25 07:38 23.60448 58.28850 40 ft 6 kts 354°
2026-04-25 07:38 23.60507 58.28845 40 ft 12 kts 358°
2026-04-25 07:38 23.60578 58.28892 38 ft 14 kts 71°
2026-04-25 07:38 23.60588 58.29016 40 ft 19 kts 85°
2026-04-25 07:39 23.60601 58.29185 40 ft 25 kts 84°
2026-04-25 07:39 23.60620 58.29397 39 ft 31 kts 85°
2026-04-25 07:39 23.60648 58.29578 39 ft 19 kts 57°
2026-04-25 07:39 23.60741 58.29603 39 ft 14 kts 355°
2026-04-25 07:40 23.60754 58.29602 39 ft 0 kts 355°
2026-04-25 07:40 23.60760 58.29601 39 ft 4 kts 355°
2026-04-25 07:40 23.60818 58.29595 38 ft 12 kts 351°
2026-04-25 07:40 23.60884 58.29533 39 ft 14 kts 284°
2026-04-25 07:41 23.60882 58.29403 40 ft 24 kts 266°
2026-04-25 07:41 23.60855 58.29076 40 ft 63 kts 264°
2026-04-25 07:41 23.60804 58.28447 41 ft 108 kts 265°
2026-04-25 07:41 23.60714 58.27351 47 ft 179 kts 264°
2026-04-25 07:42 23.60581 58.25951 782 ft 183 kts 266°
2026-04-25 07:42 23.60205 58.24612 1639 ft 191 kts 232°
2026-04-25 07:42 23.59486 58.24085 2314 ft 193 kts 203°
2026-04-25 07:42 23.57774 58.24478 3491 ft 201 kts 139°
2026-04-25 07:43 23.57170 58.25841 4435 ft 209 kts 97°
2026-04-25 07:43 23.57315 58.26926 4809 ft 232 kts 67°
2026-04-25 07:43 23.58299 58.28461 5358 ft 259 kts 51°
2026-04-25 07:43 23.59371 58.30090 5921 ft 273 kts 58°
2026-04-25 07:44 23.60273 58.31977 6453 ft 282 kts 67°
2026-04-25 07:44 23.60851 58.34025 6943 ft 284 kts 75°
2026-04-25 07:44 23.61745 58.35945 7422 ft 287 kts 48°
2026-04-25 07:44 23.63347 58.37177 7902 ft 288 kts 21°
2026-04-25 07:45 23.65341 58.37465 8370 ft 292 kts 351°
2026-04-25 07:45 23.67229 58.36701 8873 ft 289 kts 324°
2026-04-25 07:45 23.68560 58.35108 9357 ft 292 kts 297°
2026-04-25 07:45 23.69383 58.33075 9858 ft 295 kts 293°
2026-04-25 07:46 23.70174 58.30932 10307 ft 296 kts 291°
2026-04-25 07:46 23.70920 58.28861 10733 ft 299 kts 292°
2026-04-25 07:46 23.71699 58.26755 11186 ft 301 kts 292°
2026-04-25 07:46 23.72494 58.24628 11643 ft 303 kts 292°
2026-04-25 07:47 23.73291 58.22480 12092 ft 305 kts 292°
2026-04-25 07:47 23.74079 58.20342 12577 ft 308 kts 292°
2026-04-25 07:47 23.74886 58.18158 13047 ft 310 kts 292°
2026-04-25 07:47 23.75698 58.15962 13535 ft 313 kts 292°
2026-04-25 07:48 23.76507 58.13772 13980 ft 315 kts 292°
2026-04-25 07:48 23.77337 58.11525 14405 ft 317 kts 292°
2026-04-25 07:48 23.78166 58.09277 14860 ft 319 kts 292°
2026-04-25 07:48 23.78989 58.07045 15299 ft 321 kts 292°
2026-04-25 07:49 23.79827 58.04771 15757 ft 323 kts 292°
2026-04-25 07:49 23.80672 58.02478 16222 ft 325 kts 292°
2026-04-25 07:49 23.81510 58.00200 16677 ft 328 kts 292°
2026-04-25 07:49 23.82368 57.97871 17161 ft 330 kts 292°
2026-04-25 07:50 23.83228 57.95530 17657 ft 333 kts 291°
2026-04-25 07:50 23.84089 57.93189 18131 ft 335 kts 291°
2026-04-25 07:50 23.84965 57.90803 18564 ft 337 kts 291°
2026-04-25 07:50 23.85843 57.88414 19004 ft 337 kts 291°
2026-04-25 07:51 23.86708 57.86057 19422 ft 338 kts 291°
2026-04-25 07:51 23.87588 57.83657 19868 ft 339 kts 291°
2026-04-25 07:51 23.88468 57.81253 20319 ft 341 kts 291°
2026-04-25 07:51 23.89345 57.78862 20767 ft 342 kts 291°
2026-04-25 07:52 23.90230 57.76443 21228 ft 342 kts 291°
2026-04-25 07:52 23.91120 57.74011 21696 ft 343 kts 291°
2026-04-25 07:52 23.92001 57.71604 22171 ft 345 kts 291°
2026-04-25 07:52 23.92894 57.69159 22655 ft 346 kts 291°
2026-04-25 07:53 23.93793 57.66698 23152 ft 347 kts 291°
2026-04-25 07:53 23.94683 57.64261 23615 ft 348 kts 291°
2026-04-25 07:53 23.95581 57.61798 24033 ft 349 kts 290°
2026-04-25 07:53 23.96490 57.59306 24463 ft 351 kts 290°
2026-04-25 07:54 23.97396 57.56820 24881 ft 352 kts 290°
2026-04-25 07:54 23.98298 57.54344 25317 ft 355 kts 290°
2026-04-25 07:54 23.99220 57.51810 25760 ft 357 kts 290°
2026-04-25 07:54 24.00320 57.49409 26230 ft 359 kts 304°
2026-04-25 07:55 24.01848 57.47212 26700 ft 365 kts 306°
2026-04-25 07:55 24.03430 57.45008 27173 ft 367 kts 306°
2026-04-25 07:55 24.05016 57.42821 27661 ft 369 kts 306°
2026-04-25 07:55 24.06609 57.40595 28132 ft 371 kts 306°
2026-04-25 07:56 24.08184 57.38381 28615 ft 373 kts 306°
2026-04-25 07:56 24.09793 57.36127 29131 ft 376 kts 306°
2026-04-25 07:56 24.11421 57.33853 29628 ft 379 kts 306°
2026-04-25 07:56 24.13039 57.31589 30038 ft 384 kts 306°
2026-04-25 07:57 24.16374 57.26914 30029 ft 385 kts 306°
2026-04-25 07:57 24.19653 57.22317 30033 ft 382 kts 306°
2026-04-25 07:58 24.22920 57.17728 30033 ft 382 kts 306°
2026-04-25 07:58 24.26201 57.13119 30032 ft 382 kts 306°
2026-04-25 07:59 24.29458 57.08537 30035 ft 382 kts 306°
2026-04-25 07:59 24.32722 57.03943 30032 ft 384 kts 306°
2026-04-25 08:00 24.36012 56.99306 30030 ft 384 kts 305°
2026-04-25 08:00 24.39306 56.94659 30028 ft 384 kts 305°
2026-04-25 08:01 24.42579 56.90040 30020 ft 383 kts 305°
2026-04-25 08:01 24.45832 56.85442 30016 ft 382 kts 305°
2026-04-25 08:02 24.49073 56.80857 30020 ft 382 kts 305°
2026-04-25 08:02 24.52348 56.76220 30017 ft 383 kts 305°
2026-04-25 08:03 24.55612 56.71597 30022 ft 383 kts 305°
2026-04-25 08:03 24.58869 56.66995 30027 ft 382 kts 305°
2026-04-25 08:04 24.62125 56.62383 30035 ft 383 kts 305°
2026-04-25 08:04 24.65385 56.57766 29421 ft 380 kts 305°
2026-04-25 08:05 24.67019 56.55445 28712 ft 383 kts 305°
2026-04-25 08:05 24.68661 56.53115 28068 ft 385 kts 305°
2026-04-25 08:05 24.70290 56.50804 27402 ft 386 kts 305°
2026-04-25 08:05 24.71948 56.48450 26729 ft 388 kts 305°
2026-04-25 08:06 24.73581 56.46128 26079 ft 389 kts 305°
2026-04-25 08:06 24.75245 56.43763 25394 ft 391 kts 305°
2026-04-25 08:06 24.76920 56.41380 24723 ft 392 kts 305°
2026-04-25 08:06 24.78582 56.39016 24021 ft 394 kts 305°
2026-04-25 08:07 24.80240 56.36588 23260 ft 395 kts 303°
2026-04-25 08:07 24.81865 56.34157 22278 ft 400 kts 305°
2026-04-25 08:07 24.83567 56.31694 21262 ft 406 kts 305°
2026-04-25 08:07 24.85275 56.29182 20267 ft 412 kts 304°
2026-04-25 08:08 24.86971 56.26642 19582 ft 410 kts 304°
2026-04-25 08:08 24.88533 56.23997 18941 ft 410 kts 297°
2026-04-25 08:08 24.89926 56.21268 18317 ft 415 kts 298°
2026-04-25 08:08 24.91358 56.18491 17600 ft 415 kts 298°
2026-04-25 08:09 24.92781 56.15732 16881 ft 411 kts 298°
2026-04-25 08:09 24.94172 56.13028 16171 ft 406 kts 298°
2026-04-25 08:09 24.95554 56.10333 15489 ft 401 kts 298°
2026-04-25 08:09 24.96930 56.07655 14816 ft 396 kts 298°
2026-04-25 08:10 24.98261 56.05060 14165 ft 391 kts 298°
2026-04-25 08:10 24.99606 56.02440 13469 ft 386 kts 299°
2026-04-25 08:10 25.00920 55.99881 12753 ft 382 kts 298°
2026-04-25 08:10 25.02213 55.97358 12054 ft 377 kts 298°
2026-04-25 08:11 25.03497 55.94849 11363 ft 373 kts 298°
2026-04-25 08:11 25.04807 55.92399 10671 ft 367 kts 304°
2026-04-25 08:11 25.06650 55.90507 10145 ft 364 kts 326°
2026-04-25 08:11 25.08852 55.89204 10072 ft 359 kts 332°
2026-04-25 08:12 25.11134 55.87948 10041 ft 366 kts 330°
2026-04-25 08:12 25.13320 55.86555 10014 ft 365 kts 326°
2026-04-25 08:12 25.15382 55.84905 9848 ft 365 kts 317°
2026-04-25 08:12 25.16962 55.82730 9665 ft 361 kts 300°
2026-04-25 08:13 25.18143 55.80320 9465 ft 359 kts 295°
2026-04-25 08:13 25.19277 55.77853 9271 ft 357 kts 297°
2026-04-25 08:13 25.20524 55.75521 9055 ft 342 kts 302°
2026-04-25 08:14 25.22964 55.71360 8627 ft 308 kts 300°
2026-04-25 08:14 25.24045 55.69377 8392 ft 293 kts 300°
2026-04-25 08:14 25.25061 55.67532 8247 ft 269 kts 300°
2026-04-25 08:14 25.26011 55.65833 8047 ft 253 kts 300°
2026-04-25 08:15 25.26916 55.64213 7862 ft 248 kts 300°
2026-04-25 08:15 25.27817 55.62595 7665 ft 245 kts 300°
2026-04-25 08:15 25.28702 55.60983 7469 ft 244 kts 298°
2026-04-25 08:15 25.29123 55.59212 7247 ft 241 kts 271°
2026-04-25 08:16 25.28790 55.57442 7037 ft 231 kts 246°
2026-04-25 08:16 25.27829 55.56064 6840 ft 227 kts 222°
2026-04-25 08:16 25.26512 55.55127 6633 ft 225 kts 212°
2026-04-25 08:16 25.25007 55.54668 6388 ft 230 kts 181°
2026-04-25 08:17 25.23465 55.55161 6155 ft 233 kts 149°
2026-04-25 08:17 25.22373 55.56461 5933 ft 232 kts 123°
2026-04-25 08:17 25.21531 55.57995 5762 ft 233 kts 121°
2026-04-25 08:17 25.20704 55.59523 5550 ft 233 kts 121°
2026-04-25 08:18 25.19853 55.61053 5314 ft 233 kts 121°
2026-04-25 08:18 25.19011 55.62560 5072 ft 231 kts 121°
2026-04-25 08:18 25.18166 55.64075 4763 ft 232 kts 121°
2026-04-25 08:18 25.17324 55.65588 4389 ft 228 kts 121°
2026-04-25 08:19 25.16779 55.66568 4147 ft 228 kts 121°
2026-04-25 08:19 25.15951 55.68055 3798 ft 228 kts 121°
2026-04-25 08:19 25.15124 55.69537 3458 ft 224 kts 121°
2026-04-25 08:19 25.13899 55.71356 2926 ft 225 kts 143°
2026-04-25 08:20 25.12949 55.71778 2638 ft 219 kts 172°
2026-04-25 08:20 25.11516 55.71466 2216 ft 208 kts 207°
2026-04-25 08:20 25.10300 55.70701 2003 ft 191 kts 212°
2026-04-25 08:20 25.09147 55.69972 1996 ft 191 kts 212°
2026-04-25 08:21 25.08024 55.69226 1985 ft 190 kts 219°
2026-04-25 08:21 25.07406 55.67979 1961 ft 185 kts 260°
2026-04-25 08:21 25.07440 55.66576 1968 ft 187 kts 289°
2026-04-25 08:21 25.08284 55.65591 1974 ft 178 kts 329°
2026-04-25 08:22 25.09459 55.64853 2026 ft 208 kts 325°
2026-04-25 08:22 25.10252 55.63568 2012 ft 205 kts 296°
2026-04-25 08:22 25.11005 55.62214 2023 ft 202 kts 303°
2026-04-25 08:22 25.11743 55.60890 2013 ft 204 kts 302°
2026-04-25 08:23 25.12458 55.59599 2005 ft 195 kts 303°
2026-04-25 08:23 25.13162 55.58338 2008 ft 191 kts 303°
2026-04-25 08:23 25.13858 55.57085 2005 ft 193 kts 302°
2026-04-25 08:23 25.14530 55.55865 1995 ft 183 kts 303°
2026-04-25 08:24 25.15205 55.54654 2014 ft 186 kts 303°
2026-04-25 08:24 25.15879 55.53452 1990 ft 182 kts 302°
2026-04-25 08:24 25.16537 55.52258 1989 ft 187 kts 303°
2026-04-25 08:24 25.17207 55.51055 1998 ft 185 kts 303°
2026-04-25 08:25 25.17852 55.49873 1998 ft 170 kts 302°
2026-04-25 08:25 25.18473 55.48750 1915 ft 175 kts 303°
2026-04-25 08:25 25.19110 55.47602 1706 ft 171 kts 303°
2026-04-25 08:25 25.19721 55.46501 1470 ft 169 kts 303°
2026-04-25 08:26 25.20340 55.45383 1275 ft 171 kts 302°
2026-04-25 08:26 25.20955 55.44273 1054 ft 170 kts 302°
2026-04-25 08:26 25.21576 55.43142 834 ft 168 kts 301°
2026-04-25 08:26 25.22171 55.42064 638 ft 165 kts 301°
2026-04-25 08:27 25.22778 55.40974 412 ft 169 kts 301°
2026-04-25 08:27 25.23388 55.39868 210 ft 169 kts 301°
2026-04-25 08:27 25.23965 55.38826 59 ft 147 kts 304°
2026-04-25 08:27 25.24398 55.38007 46 ft 97 kts 307°
2026-04-25 08:28 25.24660 55.37560 41 ft 41 kts 302°
2026-04-25 08:28 25.24718 55.37454 39 ft 6 kts 300°
2026-04-25 08:28 25.24754 55.37365 39 ft 19 kts 288°
2026-04-25 08:28 25.24785 55.37186 40 ft 26 kts 271°
2026-04-25 08:29 25.24785 55.37131 39 ft 0 kts 271°
2026-04-25 08:29 25.24786 55.37101 38 ft 9 kts 271°
2026-04-25 08:29 25.24793 55.36989 36 ft 20 kts 281°
2026-04-25 08:30 25.24825 55.36896 34 ft 0 kts 295°
2026-04-25 08:32 25.24837 55.36868 34 ft 12 kts 293°
2026-04-25 08:32 25.24864 55.36769 33 ft 0 kts 283°
2026-04-25 08:33 25.24869 55.36743 32 ft 12 kts 285°
2026-04-25 08:33 25.24935 55.36582 30 ft 28 kts 302°
2026-04-25 08:33 25.24960 55.36536 29 ft 0 kts 297°
2026-04-25 08:35 25.24966 55.36519 29 ft 10 kts 292°
2026-04-25 08:35 25.24979 55.36372 28 ft 24 kts 273°
2026-04-25 08:35 25.24944 55.36245 27 ft 11 kts 222°
2026-04-25 08:36 25.24923 55.36227 26 ft 0 kts 214°